Flag for Guernsey Weather past 2 weeks in St. Peter Port, Guernsey

Now
54 °F

Scattered clouds.


Feels Like: 51 °F
Forecast: 53 / 60 °F
Wind: 8 mph from North

Location: Guernsey Airport

Current Time: May 25, 2015 at 9:30:03 AM

Latest Report: May 25, 2015 at 8:50 AM


Visibility: N/A

Pressure: 30.18 "Hg

Humidity: 88%

Dew point: 50 °F

Location of St. Peter PortLocation

Historic Weather in St. Peter Port — Graph

°F

St. Peter Port temperature yesterday

Maximum temperature yesterday: 57 °F (at 8:50 AM)
Minimum temperature yesterday: 50 °F (at 3:50 AM)
Average temperature yesterday: 54 °F

Past Weeks' High & Low Weather Summary

 TemperatureHumidityPressure
High64 °F (May 23, 12:50 PM)100% (May 10, 9:50 AM)30.42 "Hg (May 10, 9:50 AM)
Low45 °F (May 13, 3:50 AM)63% (May 12, 1:50 PM)29.77 "Hg (May 14, 7:20 AM)
Average54 °F85%30.15 "Hg
* Reported May 10 8:20 AM — May 25 8:20 AM, St. Peter Port, Weather by CustomWeather, © 2015

Note: Actual official high and low records may vary slightly from our data, if they occured in-between our weather recording intervals... More about our weather records

Advertising

St. Peter Port weather history for previous 24 hours

 ConditionsComfort  
Time TempWeatherWind HumidityBarometerVisibility
8:20 AM
Mon, May 25
54 °FPartly sunny.9 mph88%30.18 "HgN/A
7:50 AM52 °FPartly sunny.10 mph94%30.15 "HgN/A
7:20 AM52 °FScattered clouds.12 mph94%30.15 "HgN/A
6:50 AM52 °FSunny.10 mph88%30.15 "Hg10 mi
6:20 AM50 °FPassing clouds.9 mph94%30.15 "HgN/A
5:50 AM50 °FPassing clouds.10 mph94%30.15 "HgN/A
5:20 AM50 °FPassing clouds.10 mph94%30.12 "HgN/A
4:50 AM50 °FPassing clouds.9 mph100%30.15 "HgN/A
4:20 AM50 °FPassing clouds.8 mph94%30.15 "HgN/A
3:50 AM50 °FPassing clouds.8 mph94%30.12 "HgN/A
11:50 PM
Sun, May 24
54 °FFog.12 mph100%30.15 "Hg1 mi
11:20 PM54 °FFog.13 mph100%30.15 "Hg0 mi
10:20 PM54 °FFog.12 mph100%30.15 "Hg0 mi
9:50 PM54 °FFog.13 mph100%30.15 "Hg0 mi
9:20 PM54 °FFog.12 mph100%30.15 "Hg0 mi
8:50 PM54 °FFog.12 mph100%30.15 "Hg0 mi
8:20 PM54 °FFog.13 mph100%30.15 "Hg0 mi
7:50 PM54 °FFog.13 mph100%30.15 "Hg0 mi
7:20 PM54 °FFog.14 mph100%30.15 "Hg1 mi
6:50 PM54 °FFog.16 mph100%30.15 "Hg1 mi
6:20 PM55 °FFog.14 mph94%30.15 "Hg2 mi
5:50 PM55 °FFog.15 mph94%30.15 "Hg3 mi
5:20 PM55 °FDrizzle. Partly sunny.16 mph94%30.15 "Hg5 mi
4:50 PM55 °FBroken clouds.15 mph94%30.15 "HgN/A
4:20 PM55 °FPartly sunny.13 mph94%30.15 "HgN/A
3:50 PM55 °FPartly sunny.13 mph94%30.18 "HgN/A
3:20 PM55 °FPartly sunny.14 mph94%30.18 "HgN/A
2:50 PM57 °FBroken clouds.12 mph88%30.18 "HgN/A
2:20 PM57 °FPartly sunny.12 mph88%30.18 "HgN/A
1:50 PM55 °FBroken clouds.12 mph94%30.18 "HgN/A
1:20 PM57 °FScattered clouds.13 mph88%30.21 "HgN/A
12:50 PM57 °FScattered clouds.10 mph88%30.21 "HgN/A
12:20 PM55 °FPartly sunny.13 mph88%30.21 "HgN/A
11:50 AM57 °FPartly sunny.10 mph88%30.21 "HgN/A
11:20 AM55 °FPartly sunny.13 mph88%30.21 "HgN/A
10:50 AM57 °FScattered clouds.10 mph88%30.21 "HgN/A
10:20 AM57 °FPassing clouds.10 mph82%30.18 "HgN/A
9:50 AM57 °FPassing clouds.9 mph82%30.18 "HgN/A
9:20 AM57 °FPassing clouds.8 mph82%30.18 "HgN/A
Weather by CustomWeather, © 2015

See weather overviewHow to use our weather pages